COMS 1

Last updated on Sun Apr 12 2026 00:02:26 GMT+0000 (Coordinated Universal Time)

1 36744U 10032A 26101.40345654 -.00000339 00000+0 00000+0 0 9995 2 36744 4.6315 76.2691 0001577 347.1272 49.6265 1.00273189 50426
UTC large
Height (km)
Speed (km/s)
/
Latitude / Longitude
Inclination (degrees)
Orbital Period (minutes)
Azimuth
Elevation
Range (km)
Doppler Factor

Next 0 passes for location: London (51.5072 / 0.1276)

Sorry there are no passes over London.
COMS 1